Weather History for Cut Bank, MT

Change the Weather History Date:

Friday, June 21, 2013

  Actual Average Record
Temperature  
Mean Temperature 53 °F 59 °F  
Max Temperature 65 °F 72 °F 96 °F (1922)
Min Temperature 40 °F 46 °F 34 °F (1983)
Degree Days  
Heating Degree Days 12 7  
Month to date heating degree days 185 182  
Since 1 June heating degree days 185 182  
Since 1 July heating degree days 8217 8470  
Cooling Degree Days 0 1  
Month to date cooling degree days 0 5  
Year to date cooling degree days 2 7  
Since 1 June cooling degree days 0 5  
Growing Degree Days 2 (Base 50)    
Moisture  
Dew Point 38 °F    
Average Humidity 63    
Maximum Humidity 92    
Minimum Humidity 34    
Precipitation  
Precipitation 0.00 in 0.08 in 1.35 in (1923)
Month to date precipitation 1.96 1.94  
Year to date precipitation 6.55 5.58  
Snow  
Snow 0.00 in - - ()
Snow Depth 0.00 in    
Sea Level Pressure  
Sea Level Pressure 30.01 in    
Wind  
Wind Speed 12 mph (West)    
Max Wind Speed 24 mph    
Max Gust Speed 29 mph    
Visibility 10 miles    
Events      
T = Trace of Precipitation, MM = Missing Value Source: NWS Daily Summary

Daily Weather History Graph

Daily Weather History Graph

Search for Another Location

Airport:

Trip Planner

Search our weather history database for the weather conditions in past years. The results will help you decide how hot, cold, wet, or windy it might be!

Date:

Astronomy

Jun. 21, 2013 Rise Set
Actual Time 5:27 AM MDT 9:35 PM MDT
Civil Twilight 4:44 AM MDT 10:17 PM MDT
Nautical Twilight 3:45 AM MDT 11:17 PM MDT
Astronomical Twilight 2:03 AM MDT 12:59 AM MDT
Moon 7:44 PM MDT (6/21) 3:53 AM MDT (6/21)
Length of Visible Light 17h 33m
Length of Day
16h 08m
Waxing Gibbous, 95% of the Moon is Illuminated
Jun 21
Waxing Gibbous
Jun 23
Full
Jun 29
Last Quarter
Jul 8
New
Jul 15
First Quarter

Hourly Weather History & Observations

Time (MDT) Temp. Windchill Dew Point Humidity Pressure Visibility Wind Dir Wind Speed Gust Speed Precip Events Conditions
12:56 AM 44.1 °F 41.5 °F 36.0 °F 73% 30.01 in 10.0 mi SW 4.6 mph - N/A   Clear
1:56 AM 46.0 °F 39.3 °F 35.1 °F 66% 29.97 in 10.0 mi SW 16.1 mph - N/A   Clear
2:56 AM 44.1 °F 38.1 °F 35.1 °F 71% 29.98 in 10.0 mi SW 11.5 mph - N/A   Clear
3:56 AM 41.0 °F 34.7 °F 35.1 °F 79% 29.97 in 10.0 mi WSW 10.4 mph - N/A   Clear
4:56 AM 42.1 °F 37.1 °F 35.1 °F 76% 29.98 in 10.0 mi SW 8.1 mph - N/A   Clear
5:56 AM 42.1 °F 37.1 °F 35.1 °F 76% 30.00 in 10.0 mi SW 8.1 mph - N/A   Clear
6:56 AM 45.0 °F 39.7 °F 37.0 °F 74% 30.00 in 10.0 mi WSW 10.4 mph - N/A   Clear
7:56 AM 51.1 °F - 37.0 °F 59% 30.01 in 10.0 mi SW 9.2 mph - N/A   Clear
8:56 AM 54.0 °F - 36.0 °F 51% 30.01 in 10.0 mi SW 9.2 mph - N/A   Clear
9:56 AM 55.9 °F - 36.0 °F 47% 30.01 in 10.0 mi SW 21.9 mph - N/A   Clear
10:56 AM 59.0 °F - 37.0 °F 44% 30.00 in 10.0 mi WSW 17.3 mph - N/A   Clear
11:56 AM 60.1 °F - 37.9 °F 44% 29.99 in 10.0 mi WSW 19.6 mph 26.5 mph N/A   Clear
12:56 PM 62.1 °F - 39.0 °F 43% 30.00 in 10.0 mi West 17.3 mph 24.2 mph N/A   Clear
1:56 PM 62.1 °F - 37.0 °F 39% 30.00 in 10.0 mi WSW 12.7 mph 20.7 mph N/A   Clear
2:56 PM 64.0 °F - 36.0 °F 35% 30.00 in 10.0 mi WSW 15.0 mph 24.2 mph N/A   Clear
3:56 PM 64.0 °F - 37.9 °F 38% 30.01 in 10.0 mi West 15.0 mph 19.6 mph N/A   Clear
4:56 PM 64.0 °F - 37.9 °F 38% 30.01 in 10.0 mi WSW 11.5 mph - N/A   Clear
5:56 PM 63.0 °F - 39.0 °F 41% 30.01 in 10.0 mi WSW 13.8 mph - N/A   Clear
6:56 PM 62.1 °F - 39.0 °F 43% 30.01 in 10.0 mi West 15.0 mph 20.7 mph N/A   Clear
7:31 PM 57.2 °F - 42.8 °F 59% 30.04 in 10.0 mi North 18.4 mph 23.0 mph N/A   Partly Cloudy
7:56 PM 57.9 °F - 44.1 °F 60% 30.02 in 10.0 mi North 13.8 mph - N/A   Clear
8:56 PM 54.0 °F - 44.1 °F 69% 30.03 in 10.0 mi North 10.4 mph - N/A   Clear
9:56 PM 50.0 °F - 43.0 °F 77% 30.05 in 10.0 mi North 9.2 mph - N/A   Clear
10:56 PM 46.9 °F - 42.1 °F 83% 30.06 in 10.0 mi North 5.8 mph - N/A   Clear
11:56 PM 45.0 °F 43.5 °F 42.1 °F 90% 30.06 in 10.0 mi NNW 3.5 mph - N/A   Clear